Weather History for KRST - December, 2013

Change the Weather History Date:

Thursday, December 26, 2013

  Actual Average Record
Temperature  
Mean Temperature 20 °F 17 °F  
Max Temperature 27 °F 25 °F 54 °F (1936)
Min Temperature 13 °F 9 °F -26 °F (1950)
Degree Days  
Heating Degree Days 45 48  
Month to date heating degree days 1331 1163  
Since 1 July heating degree days 3024 2835  
Cooling Degree Days 0 0  
Month to date cooling degree days 0 0  
Year to date cooling degree days 656 585  
Moisture  
Dew Point 17 °F    
Average Humidity 81    
Maximum Humidity 88    
Minimum Humidity 73    
Precipitation  
Precipitation T in 0.03 in 0.77 in (1936)
Month to date precipitation 0.95 1.08  
Year to date precipitation 41.61 32.87  
Snow  
Snow T in 0.30 in 4.30 in (1941)
Month to date snowfall 10.0 10.7  
Since 1 July snowfall 11.3 17.6  
Snow Depth 7.00 in    
Sea Level Pressure  
Sea Level Pressure 30.14 in    
Wind  
Wind Speed 6 mph (South)    
Max Wind Speed 10 mph    
Max Gust Speed 12 mph    
Visibility 9 miles    
Events Snow    
T = Trace of Precipitation, MM = Missing Value Source: NWS Daily Summary

Daily Weather History Graph

Daily Weather History Graph

Search for Another Location

Airport or City:

Trip Planner

Search our weather history database for the weather conditions in past years. The results will help you decide how hot, cold, wet, or windy it might be!

Date:

Astronomy

Dec. 26, 2013 Rise Set
Actual Time 7:43 AM CST 4:38 PM CST
Civil Twilight 7:10 AM CST 5:11 PM CST
Nautical Twilight 6:33 AM CST 5:47 PM CST
Astronomical Twilight 5:58 AM CST 6:22 PM CST
Moon 1:03 AM CST (12/26) 12:22 PM CST (12/26)
Length of Visible Light 10h 00m
Length of Day
8h 54m
Last Quarter, 38% of the Moon is Illuminated
Dec 26
Last Quarter
Jan 1
New
Jan 7
First Quarter
Jan 15
Full
Jan 23
Last Quarter

Hourly Weather History & Observations

Time (CST) Temp. Windchill Dew Point Humidity Pressure Visibility Wind Dir Wind Speed Gust Speed Precip Events Conditions
12:35 AM 14.0 °F 2.9 °F 9.0 °F 80% 30.09 in 10.0 mi WSW 8.1 mph - N/A   Overcast
12:54 AM 16.0 °F 3.6 °F 10.0 °F 77% 30.16 in 10.0 mi WSW 10.4 mph - N/A   Overcast
1:15 AM 16.0 °F 5.3 °F 10.9 °F 81% 30.09 in 10.0 mi West 8.1 mph - N/A   Overcast
1:38 AM 17.1 °F 6.6 °F 12.0 °F 81% 30.08 in 8.0 mi WSW 8.1 mph - 0.00 in Snow Light Snow
1:54 AM 18.0 °F 6.1 °F 12.0 °F 78% 30.15 in 10.0 mi WSW 10.4 mph - 0.00 in   Overcast
2:54 AM 18.0 °F 11.1 °F 12.9 °F 81% 30.15 in 10.0 mi WSW 4.6 mph - 0.00 in   Overcast
3:54 AM 19.0 °F - 12.9 °F 77% 30.15 in 10.0 mi Calm Calm - N/A   Overcast
4:54 AM 18.0 °F 11.1 °F 12.9 °F 81% 30.14 in 10.0 mi ESE 4.6 mph - N/A   Overcast
5:05 AM 18.0 °F 8.7 °F 12.9 °F 81% 30.06 in 10.0 mi SE 6.9 mph - N/A   Overcast
5:54 AM 19.0 °F 10.0 °F 14.0 °F 81% 30.14 in 10.0 mi South 6.9 mph - N/A   Overcast
6:29 AM 19.9 °F 10.1 °F 15.1 °F 81% 30.06 in 10.0 mi South 8.1 mph - N/A   Overcast
6:54 AM 19.9 °F 8.6 °F 15.1 °F 81% 30.14 in 10.0 mi SSW 10.4 mph - N/A   Overcast
7:54 AM 18.0 °F 7.7 °F 14.0 °F 84% 30.15 in 10.0 mi SSW 8.1 mph - N/A   Overcast
8:54 AM 19.0 °F 11.1 °F 15.1 °F 85% 30.16 in 10.0 mi South 5.8 mph - N/A   Overcast
9:54 AM 21.0 °F 14.6 °F 16.0 °F 81% 30.17 in 10.0 mi South 4.6 mph - N/A   Clear
10:54 AM 23.0 °F 17.0 °F 18.0 °F 81% 30.17 in 10.0 mi South 4.6 mph - N/A   Partly Cloudy
11:54 AM 25.0 °F 20.7 °F 19.0 °F 78% 30.15 in 10.0 mi SSW 3.5 mph - N/A   Scattered Clouds
12:54 PM 25.0 °F 18.1 °F 19.9 °F 81% 30.13 in 10.0 mi South 5.8 mph - N/A   Overcast
1:54 PM 26.1 °F 21.9 °F 19.9 °F 78% 30.11 in 4.0 mi South 3.5 mph - 0.00 in Snow Light Snow
2:01 PM 26.1 °F 21.9 °F 21.0 °F 81% 30.05 in 5.0 mi SSE 3.5 mph - 0.00 in Snow Light Snow
2:54 PM 26.1 °F 18.4 °F 19.9 °F 78% 30.12 in 10.0 mi South 6.9 mph - 0.00 in   Overcast
3:54 PM 26.1 °F 18.4 °F 19.9 °F 78% 30.13 in 10.0 mi SSE 6.9 mph - N/A   Overcast
4:54 PM 26.1 °F 21.9 °F 19.9 °F 78% 30.15 in 10.0 mi SE 3.5 mph - N/A   Overcast
5:54 PM 26.1 °F 18.4 °F 19.9 °F 78% 30.16 in 10.0 mi South 6.9 mph - N/A   Overcast
6:54 PM 26.1 °F 18.4 °F 19.9 °F 78% 30.19 in 10.0 mi South 6.9 mph - N/A   Overcast
7:54 PM 25.0 °F 19.3 °F 19.9 °F 81% 30.19 in 8.0 mi SSE 4.6 mph - N/A   Overcast
8:54 PM 25.0 °F 19.3 °F 21.0 °F 85% 30.19 in 8.0 mi SE 4.6 mph - N/A   Overcast
9:54 PM 25.0 °F 19.3 °F 19.9 °F 81% 30.20 in 7.0 mi SSE 4.6 mph - N/A   Overcast
10:36 PM 23.0 °F 15.8 °F 19.0 °F 85% 30.13 in 7.0 mi South 5.8 mph - N/A   Overcast
10:54 PM 24.1 °F 17.0 °F 19.9 °F 84% 30.19 in 7.0 mi SSE 5.8 mph - N/A   Overcast
11:54 PM 25.0 °F 18.1 °F 21.0 °F 85% 30.21 in 7.0 mi SSW 5.8 mph - N/A   Overcast